Lid_Strength_Index
16 16 16 16 16 16 16 17 17 17 17 18 19 20 19 20 20 20 20 20 21 21 21 22 22 22 23 22 22 22 22 21 21 22 21 21 22 23 22 21 20 20 19
16 16 16 16 16 17 18 18 17 18 19 19 20 20 21 20 20 21 21 22 21 22 22 23 23 23 24 23 23 23 23 23 22 23 22 21 20 21 21 21 21 20 21
16 16 16 16 17 17 19 19 19 20 20 21 21 21 21 21 21 21 22 22 22 22 23 24 24 24 24 24 23 23 21 20 21 21 22 21 21 21 22 22 22 21 21
16 17 17 17 17 17 18 19 19 20 21 21 21 22 21 21 21 22 22 23 22 22 22 22 22 23 23 21 21 21 21 21 21 22 22 23 22 22 22 23 24 22 22
17 17 18 18 17 18 19 19 19 19 20 20 20 21 21 22 22 23 23 23 23 23 22 21 20 18 17 18 20 21 21 22 22 22 23 23 23 24 25 24 24 23 22
18 19 19 18 19 19 19 19 19 20 20 20 20 20 21 20 19 20 23 23 23 22 21 20 20 20 18 18 18 19 20 21 22 23 23 24 24 24 24 24 24 24 25
20 19 19 20 20 20 20 20 20 20 20 20 21 21 21 20 19 20 21 22 22 21 21 20 20 20 20 21 20 21 22 21 21 22 24 24 24 24 23 24 23 24 24
20 20 20 20 21 21 21 21 21 21 21 20 20 20 20 18 17 18 20 22 22 22 22 21 21 20 19 21 22 23 23 23 22 22 22 22 22 21 21 22 22 23 24
21 21 21 21 21 22 22 22 22 22 22 20 19 19 19 18 17 18 20 21 22 23 23 22 21 21 18 18 22 23 23 23 21 19 19 19 20 19 20 22 25 27 27
21 21 21 21 21 21 22 22 21 20 20 19 19 20 19 18 16 18 20 21 22 22 23 23 21 20 19 19 22 23 25 23 23 24 25 25 24 25 22 24 25 27 27
20 20 20 20 21 21 21 21 21 21 21 22 22 21 21 20 18 16 18 20 21 22 23 24 23 20 19 19 19 24 22 21 26 28 28 27 26 26 25 24 24 25 26
21 21 22 22 21 22 23 22 23 23 23 23 23 23 22 21 18 17 17 18 19 22 23 23 23 19 19 20 21 20 20 24 27 29 29 28 27 26 25 25 24 23 22
24 25 24 23 22 22 23 24 24 24 24 24 23 24 23 22 22 19 19 18 18 20 21 21 20 21 21 23 23 21 24 27 28 30 29 28 27 26 26 26 24 23 23
26 26 25 24 24 23 22 23 24 24 25 24 24 24 24 23 22 21 20 20 20 20 21 25 23 23 24 24 28 27 28 28 29 29 29 28 28 27 27 25 25 24 25
26 26 26 25 26 25 24 24 24 24 23 25 26 25 25 24 22 18 18 20 21 21 28 29 29 29 29 29 29 29 29 29 29 29 29 29 29 28 27 25 25 25 26
26 26 26 26 26 25 25 25 20 19 19 19 19 23 23 21 19 18 18 18 19 21 29 29 30 30 30 29 29 29 29 29 29 29 29 29 29 29 27 26 26 26 26
27 26 27 26 27 27 27 27 26 23 19 19 19 19 19 19 19 19 18 19 21 25 29 30 31 31 30 30 30 30 30 28 29 30 30 30 29 29 28 28 27 26 26
29 29 27 27 27 28 28 28 29 29 27 27 24 20 19 19 19 19 19 23 29 30 33 32 31 31 31 31 30 30 29 30 30 30 30 29 29 29 29 29 27 27 27
29 29 29 29 29 29 29 31 31 31 31 30 31 26 26 22 20 19 19 28 29 30 31 32 32 32 31 31 31 31 31 31 31 31 30 30 29 29 29 27 27 27 26
31 30 30 29 30 31 31 31 31 31 30 30 29 28 30 30 29 28 29 30 31 32 31 31 30 31 31 31 31 31 31 32 31 31 30 29 28 28 28 27 27 26 26
28 29 29 31 31 30 29 30 29 29 28 29 28 28 25 30 27 26 25 28 30 30 30 30 30 30 31 31 32 31 32 31 31 30 29 29 28 29 27 26 26 26 25
28 28 29 29 29 30 30 29 29 29 28 28 27 29 22 23 23 25 26 26 27 28 29 30 30 30 30 31 31 31 31 31 30 29 29 29 28 27 27 27 27 26 25
27 27 28 28 28 29 29 29 29 28 28 27 27 27 27 27 26 26 26 25 25 26 28 30 31 31 31 31 31 31 31 30 29 28 29 29 29 29 28 27 26 26 25
26 27 27 27 27 28 27 27 27 27 27 27 26 26 25 25 25 25 24 24 24 25 27 28 30 31 30 30 30 30 30 30 29 29 30 30 29 29 27 27 26 24 22
26 26 26 26 26 26 26 26 26 26 26 26 25 25 24 23 23 23 24 24 24 26 27 28 29 30 31 31 31 30 30 28 28 28 29 29 30 29 27 23 21 20 19
26 26 25 25 25 25 25 25 25 25 25 24 23 23 23 23 23 23 23 24 25 26 27 27 29 30 31 30 30 29 28 24 24 22 21 22 22 21 20 20 19 18 17